This is the latest recevied weather packets stored in our database for station/object KD5VOO. If no packets are shown the sender has not sent any weather packets the latest 10 day(s).
| Time | Temp. | Humidity | Pressure | Rain* | Wind** | Luminosity | Snow |
|---|---|---|---|---|---|---|---|
| 1778095927 | 29.44° C | 60% | 1008.8 hPa | 0 mm | - | 271 W/m² | - |
| 1778095624 | 29.44° C | 59% | 1008.8 hPa | 0 mm | - | 93 W/m² | - |
| 1778095320 | 29.44° C | 59% | 1009.2 hPa | 0 mm | - | 112 W/m² | - |
| 1778095017 | 29.44° C | 59% | 1009.2 hPa | 0 mm | - | 113 W/m² | - |
| 1778094713 | 29.44° C | 59% | 1009.2 hPa | 0 mm | - | 215 W/m² | - |
| 1778094411 | 29.44° C | 59% | 1009.2 hPa | 0 mm | - | 113 W/m² | - |
| 1778094107 | 29.44° C | 59% | 1009.9 hPa | 0 mm | - | 122 W/m² | - |
| 1778093804 | 29.44° C | 59% | 1009.9 hPa | 0 mm | - | 122 W/m² | - |
| 1778093500 | 29.44° C | 59% | 1009.5 hPa | 0 mm | - | 120 W/m² | - |
| 1778093198 | 29.44° C | 59% | 1009.5 hPa | 0 mm | - | 114 W/m² | - |
| 1778092895 | 29.44° C | 59% | 1009.9 hPa | 0 mm | - | 118 W/m² | - |
| 1778092592 | 29.44° C | 59% | 1009.9 hPa | 0 mm | - | 138 W/m² | - |
| 1778092288 | 29.44° C | 60% | 1009.9 hPa | 0 mm | - | 138 W/m² | - |
| 1778091986 | 29.44° C | 60% | 1009.9 hPa | 0 mm | - | 196 W/m² | - |
| 1778091682 | 29.44° C | 59% | 1009.9 hPa | 0 mm | - | 131 W/m² | - |
| 1778091380 | 28.89° C | 59% | 1009.9 hPa | 0 mm | - | 122 W/m² | - |
| 1778091077 | 28.89° C | 59% | 1010.2 hPa | 0 mm | - | 136 W/m² | - |
| 1778090774 | 28.89° C | 60% | 1010.2 hPa | 0 mm | - | 153 W/m² | - |
| 1778090470 | 28.89° C | 60% | 1009.9 hPa | 0 mm | - | 141 W/m² | - |
| 1778090167 | 28.89° C | 60% | 1010.2 hPa | 0 mm | - | 128 W/m² | - |
| 1778089863 | 28.89° C | 60% | 1010.2 hPa | 0 mm | - | 119 W/m² | - |
| 1778089562 | 28.33° C | 61% | 1010.5 hPa | 0 mm | - | 104 W/m² | - |
| 1778089257 | 28.33° C | 60% | 1010.5 hPa | 0 mm | - | 133 W/m² | - |
| 1778088955 | 28.33° C | 61% | 1010.2 hPa | 0 mm | - | 138 W/m² | - |
| 1778088652 | 27.78° C | 61% | 1010.5 hPa | 0 mm | - | 154 W/m² | - |
* Rain latest hour (hover to see other rain measurements)
** Current wind speed in m/s (hover to see current wind gust speed)